"TOA5","AWS1","CR1000","7964","CR1000.Std.14","CPU:AWS1_114.CR1","64363","TBL110"
"TIMESTAMP","RECORD","Wind_spd_WVc(1)","Wind_spd_WVc(2)","Air_Temp_Avg","Humidity_Avg","SW_upper_Wm2_Avg","Rain_Tot","Press_Avg","Issui_Tot","Depth_cm","SR50A_Raw","Quality","Ground_Temp_Avg(1)","Ground_Temp_Avg(2)","SW_lower_Wm2_Avg","Albedo_Avg","SWC_per(1)","SWC_per(2)","Period(1)","Period(2)"
"TS","RN","","","","","","","","","","","","","","","","","","",""
"","","WVc","WVc","Avg","Avg","Avg","Tot","Avg","Tot","Smp","Smp","Smp","Avg","Avg","Avg","Avg","Smp","Smp","Smp","Smp"
"2016-09-06 00:00:00",251917,0.078,98.6,16.74,100,0,0,867.3856,0,-5.444,3.139,189,21.14,20.84,0.5191676,0,49.46,55.95,33.16,34.74
"2016-09-06 00:10:00",251918,0.052,140.4,16.78,100,0,0,867.3476,0,-5.293,3.138,195,21.14,20.84,0.6745389,0,49.41,55.95,33.15,34.74
"2016-09-06 00:20:00",251919,0.228,132.5,16.74,100,0,0,867.2613,0,-3.826,3.124,211,21.09,20.84,0.591169,0,49.46,55.95,33.16,34.74
"2016-09-06 00:30:00",251920,0.122,105.9,16.73,100,0,0,867.1728,0,-3.184,3.118,221,21.07,20.84,0.5040094,0,49.41,56,33.15,34.75
"2016-09-06 00:40:00",251921,0.296,75.32,16.72,100,0,0,867.1539,0,-3.597,3.122,210,21.02,20.84,0.5949585,0,49.41,55.95,33.15,34.74
"2016-09-06 00:50:00",251922,0.197,160.4,16.71,100,0,0,867.139,0,-5.348,3.139,192,21.03,20.84,0.5798003,0,49.41,55.95,33.15,34.74
"2016-09-06 01:00:00",251923,0.248,99.1,16.66,100,0,0,866.8737,0,-2.772,3.114,218,21.08,20.84,0.3751649,0,49.46,56,33.16,34.75
"2016-09-06 01:10:00",251924,0.165,112.6,16.66,100,0,0,866.7916,0,-1.742,3.104,236,21.02,20.84,0.5002199,0,49.41,56,33.15,34.75
"2016-09-06 01:20:00",251925,0.276,118.9,16.59,100,0,0,866.6863,0,-1.361,3.101,235,21.01,20.84,0.5115885,0,49.41,56,33.15,34.75
"2016-09-06 01:30:00",251926,0.206,84.3,16.46,100,0,0,866.6484,0,-1.155,3.099,238,20.94,20.84,0.5608526,0,49.46,56,33.16,34.75
"2016-09-06 01:40:00",251927,0.157,54.83,16.67,100,0,0,866.6484,0,-0.974,3.097,231,20.97,20.82,0.9208593,0,49.46,56.06,33.16,34.76
"2016-09-06 01:50:00",251928,0.088,197.8,16.63,100,0,0,866.6293,0,-1.33,3.1,206,21.01,20.82,0.765488,0,49.46,56.06,33.16,34.76
"2016-09-06 02:00:00",251929,0.514,96.6,16.53,100,0,0,866.642,0,-0.823,3.096,217,21.01,20.8,0.4964303,0,49.46,56.06,33.16,34.76
"2016-09-06 02:10:00",251930,0.239,334.4,16.61,100,0,0,866.682,0,-0.712,3.094,230,21.01,20.8,0.6176957,0,49.46,56.06,33.16,34.76
"2016-09-06 02:20:00",251931,0.254,76.57,16.67,100,0,0,866.8716,0,-1.077,3.098,226,20.92,20.77,0.6821181,0,49.46,56.06,33.16,34.76
"2016-09-06 02:30:00",251932,0.268,115.7,16.7,100,0,0,866.899,0,-5.45,3.14,180,20.85,20.77,0.5456944,0,49.46,56.12,33.16,34.78
"2016-09-06 02:40:00",251933,0.278,131.1,16.58,100,0,0,866.6946,0,-5.893,3.145,187,20.91,20.76,0.2501099,0,49.46,56.12,33.16,34.78
"2016-09-06 02:50:00",251934,0.511,130.4,16.45,100,0,0,866.6378,0,-6.335,3.15,183,20.93,20.73,0.2766367,0,49.46,56.12,33.16,34.78
"2016-09-06 03:00:00",251935,0.565,129.5,16.4,100,0,0,866.4188,0,-1.393,3.102,216,20.91,20.72,0.3069531,0,49.46,56.12,33.16,34.78
"2016-09-06 03:10:00",251936,0.666,137.2,16.63,100,0.003930287,0,866.3956,0,-0.966,3.096,224,20.85,20.69,0.6176957,0.064,49.46,56.18,33.16,34.79
"2016-09-06 03:20:00",251937,0.571,138.2,16.95,100,0.1690023,0,866.3956,0,-1.316,3.098,234,20.79,20.7,0.7844357,2.394,49.46,56.18,33.16,34.79
"2016-09-06 03:30:00",251938,0.546,147.8,17.12,100,0,0,866.3914,0,-0.951,3.094,235,20.77,20.7,0.723803,0,49.51,56.18,33.18,34.79
"2016-09-06 03:40:00",251939,0.554,112.2,17.15,100,0,0,866.3956,0,-3.528,3.119,211,20.8,20.71,0.7162239,0,49.57,56.18,33.19,34.79
"2016-09-06 03:50:00",251940,0.406,137.3,17.3,100,0,0,866.4146,0,-2.236,3.106,210,20.81,20.73,0.9511757,0,49.51,56.18,33.18,34.79
"2016-09-06 04:00:00",251941,0.704,123.1,17.17,100,0.2279566,0,866.4061,0,-2.704,3.111,201,20.84,20.74,0.6821181,2.073,49.57,56.23,33.19,34.8
"2016-09-06 04:10:00",251942,0.685,131.2,17.14,100,0.4126801,0,866.6252,0,-2.442,3.108,208,20.8,20.75,0.7389612,2.046,49.57,56.23,33.19,34.8
"2016-09-06 04:20:00",251943,0.594,127.6,17.19,100,0.007860574,0,866.5135,0,-2.601,3.11,200,20.69,20.76,0.7351716,0.129,49.62,56.29,33.2,34.82
"2016-09-06 04:30:00",251944,0.445,140.6,17.27,100,0.4126801,0,866.6083,0,-2.823,3.111,200,20.67,20.76,0.7086449,1.286,49.62,56.29,33.2,34.82
"2016-09-06 04:40:00",251945,0.425,98.9,17.27,100,0.1965144,0,866.6146,0,-2.752,3.111,198,20.69,20.76,0.6480121,2.041,49.68,56.29,33.22,34.82
"2016-09-06 04:50:00",251946,0.735,127.6,17.24,100,0.3890984,0,866.4293,0,-2.569,3.109,201,20.74,20.76,0.6214854,1.832,49.68,56.29,33.22,34.82
"2016-09-06 05:00:00",251947,0.619,151.4,17.27,100,0.2987018,0,866.3956,0,-2.744,3.11,199,20.69,20.74,0.6896971,2.274,49.68,56.35,33.22,34.83
"2016-09-06 05:10:00",251948,0.555,138.2,17.34,100,0.4755647,0,866.4735,0,-2.688,3.109,198,20.67,20.71,0.6631703,1.551,49.62,56.35,33.2,34.83
"2016-09-06 05:20:00",251949,0.803,100,17.31,100,0.7624757,0,866.5198,0,-2.744,3.11,200,20.63,20.7,0.6745389,0.901,49.62,56.35,33.2,34.83
"2016-09-06 05:30:00",251950,0.41,131.1,17.17,100,1.206598,0,866.4082,0,-2.395,3.108,201,20.58,20.67,0.549484,0.498,49.68,56.41,33.22,34.84
"2016-09-06 05:40:00",251951,0.43,136.7,17.13,100,4.272222,0,866.3998,0,-2.395,3.108,205,20.59,20.67,0.9549652,0.225,49.68,56.41,33.22,34.84
"2016-09-06 05:50:00",251952,0.645,138.2,17.17,100,8.053158,0,866.3956,0,-2.03,3.104,200,20.62,20.67,1.49308,0.188,49.68,56.41,33.22,34.84
"2016-09-06 06:00:00",251953,0.328,108.8,17.31,100,9.17329,0,866.442,0,-1.61,3.099,214,20.64,20.67,1.709085,0.191,49.62,56.46,33.2,34.86
"2016-09-06 06:10:00",251954,0.019,44.66,17.39,100,6.665767,0,866.6273,0,-1.657,3.099,244,20.66,20.66,1.068651,0.162,49.68,56.46,33.22,34.86
"2016-09-06 06:20:00",251955,0,0,17.39,100,11.4332,0,866.6462,0,-2.276,3.105,226,20.66,20.65,1.712874,0.151,49.68,56.46,33.22,34.86
"2016-09-06 06:30:00",251956,0.038,74.75,17.48,100,17.80027,0,866.6715,0,-0.317,3.086,241,20.63,20.62,2.32678,0.128,49.73,56.52,33.23,34.87
"2016-09-06 06:40:00",251957,0.017,133.3,17.44,100,7.781968,0,866.6652,0,-0.222,3.086,222,20.55,20.61,0.9019116,0.116,49.84,56.52,33.26,34.87
"2016-09-06 06:50:00",251958,0.147,124.7,17.35,100,36.28048,0,866.6525,0,0.143,3.082,237,20.5,20.6,4.517137,0.125,49.9,56.52,33.27,34.87
"2016-09-06 07:00:00",251959,0.221,116.9,17.42,100,71.0085,0,866.6484,0,-0.078,3.083,251,20.51,20.6,8.931956,0.125,49.95,56.58,33.28,34.88
"2016-09-06 07:10:00",251960,0.176,114,17.65,100,53.31041,0,866.6484,0,0.413,3.078,259,20.54,20.61,6.453595,0.121,50.01,56.64,33.3,34.9
"2016-09-06 07:20:00",251961,0.347,112.6,17.73,100,94.61772,0,866.7916,0,0.985,3.072,296,20.58,20.62,11.78548,0.125,50.01,56.64,33.3,34.9
"2016-09-06 07:30:00",251962,0.611,109.2,17.84,100,148.8203,0,866.7831,0,1.472,3.065,368,20.58,20.62,18.88709,0.126,50.01,56.7,33.3,34.91
"2016-09-06 07:40:00",251963,0.349,88.8,18.16,100,150.0112,0,866.9011,0,0.574,3.073,285,20.58,20.6,19.36457,0.128,50.06,56.7,33.31,34.91
"2016-09-06 07:50:00",251964,0.224,115.2,18.32,100,106.1295,0,866.9011,0,0.955,3.07,339,20.57,20.59,13.0474,0.122,50.01,56.75,33.3,34.93
"2016-09-06 08:00:00",251965,0.05,123.6,18.27,100,123.6468,0,866.9011,0,0.504,3.073,322,20.54,20.6,14.94975,0.12,50.06,56.81,33.31,34.94
"2016-09-06 08:10:00",251966,0.246,113.6,18.25,100,110.9441,0,866.9011,0,-0.101,3.08,277,20.53,20.63,13.49836,0.121,50.06,56.87,33.31,34.95
"2016-09-06 08:20:00",251967,0.176,104.1,18.2,100,119.2056,0,866.8737,0,-0.641,3.085,254,20.53,20.64,14.15395,0.119,50.06,56.87,33.31,34.95
"2016-09-06 08:30:00",251968,0.251,135.7,18.15,100,113.0075,0,866.7684,0,-1.706,3.096,265,20.55,20.65,13.36193,0.118,50.01,56.93,33.3,34.97
"2016-09-06 08:40:00",251969,0.188,122.4,18.15,100,132.3288,0,866.9011,0,-1.881,3.097,269,20.54,20.66,16.28367,0.123,50.01,56.93,33.3,34.97
"2016-09-06 08:50:00",251970,0.419,127.7,18.1,100,81.41982,0,866.9011,0,-2.254,3.102,258,20.57,20.66,9.435966,0.116,50.06,56.93,33.31,34.97
"2016-09-06 09:00:00",251971,0.344,140.2,17.97,100,88.60831,0,866.9011,0,-2.461,3.104,244,20.58,20.65,10.90252,0.123,50.01,56.93,33.3,34.97
"2016-09-06 09:10:00",251972,0.157,153.2,18.11,100,57.111,0,866.9011,0,-2.247,3.101,269,20.58,20.64,6.726441,0.117,50.01,56.98,33.3,34.98
"2016-09-06 09:20:00",251973,0.117,319.1,18.1,100,59.02898,0,866.9011,0,-1.421,3.093,284,20.56,20.59,7.169818,0.121,50.01,56.98,33.3,34.98
"2016-09-06 09:30:00",251974,0.076,55.02,18.33,100,59.83469,0,866.9011,0,-1.158,3.09,269,20.51,20.57,7.423718,0.124,50.01,57.04,33.3,34.99
"2016-09-06 09:40:00",251975,0.04,149.6,18.36,100,66.59872,0,866.9264,0,-1.158,3.09,290,20.5,20.54,7.768567,0.116,50.01,57.04,33.3,34.99
"2016-09-06 09:50:00",251976,0,0,18.38,100,78.42494,0,867.0928,0,-0.657,3.084,261,20.5,20.52,9.462493,0.118,50.01,57.1,33.3,35.01
"2016-09-06 10:00:00",251977,0,0,18.54,100,103.5159,0,867.1539,0,-3.01,3.107,276,20.5,20.5,12.60023,0.121,49.95,57.1,33.28,35.01
"2016-09-06 10:10:00",251978,0,0,18.35,100,201.777,0,867.139,0,-2.286,3.1,244,20.54,20.5,25.30658,0.125,50.01,57.1,33.3,35.01
"2016-09-06 10:20:00",251979,0,0,18.64,100,159.8094,0,867.1243,0,-3.472,3.105,246,20.56,20.5,20.08838,0.125,50.01,57.04,33.3,34.99
"2016-09-06 10:30:00",251980,0,0,22.28,79.94,492.4099,0,867.0275,0,-6.484,3.097,232,20.57,20.5,56.66506,0.121,49.95,57.1,33.28,35.01
"2016-09-06 10:40:00",251981,0,0,29.42,46.61,811.8597,0,866.9011,0,-9.07,3.103,225,20.58,20.52,90.34274,0.11,50.01,57.16,33.3,35.02
"2016-09-06 10:50:00",251982,0,0,30.65,43.44,767.3177,0,866.7621,0,-47.6,3.467,332,20.57,20.54,90.58907,0.115,50.01,57.1,33.3,35.01
"2016-09-06 11:00:00",251983,0,0,29.68,45.53,762.7508,0,866.4778,0,-7.735,3.087,234,20.54,20.54,92.09351,0.118,49.95,57.16,33.28,35.02
"2016-09-06 11:10:00",251984,0,0,31.24,42.35,707.6992,0,866.3643,0,-9.22,3.094,197,20.54,20.53,107.2138,0.164,50.01,57.1,33.3,35.01
"2016-09-06 11:20:00",251985,0,0,26.63,55.59,351.2497,0,866.1083,0,-4.004,3.074,266,20.52,20.48,40.83234,0.107,49.95,57.1,33.28,35.01
"2016-09-06 11:30:00",251986,0,0,29.62,47.41,939.7316,0,865.9414,0,-6.923,3.076,245,20.59,20.47,224.8716,0.239,50.01,57.1,33.3,35.01
"2016-09-06 11:40:00",251987,0,0,30.76,43.53,800.7055,0,865.8652,0,-5.617,3.072,248,20.64,20.46,689.015,0.842,49.95,57.1,33.28,35.01
"2016-09-06 11:50:00",251988,0,0,27.16,53.82,389.9316,0,865.865,0,-4.053,3.066,269,20.7,20.46,319.1895,0.807,49.9,57.16,33.27,35.02
"2016-09-06 12:00:00",251989,0,0,30.47,43.95,712.5886,0,865.6819,0,-8.72,3.093,193,20.71,20.47,589.5849,0.808,49.95,57.16,33.28,35.02
"2016-09-06 12:10:00",251990,0,0,29.93,45.58,763.6705,0,865.6028,0,-8.71,3.085,209,20.78,20.46,704.7264,0.901,49.9,57.16,33.27,35.02
"2016-09-06 12:20:00",251991,0,0,30.54,42.09,886.319,0,865.3787,0,-5.186,3.077,253,20.81,20.45,827.6971,0.942,49.9,57.16,33.27,35.02
"2016-09-06 12:30:00",251992,0,0,29.64,46.45,1040.095,0,865.2401,0,-8.18,3.083,207,20.82,20.46,946.9768,0.911,49.84,57.16,33.26,35.02
"2016-09-06 12:40:00",251993,0,0,33.05,38.24,747.0768,0,864.8982,0,-8.98,3.091,198,20.87,20.46,679.2152,0.907,49.9,57.16,33.27,35.02
"2016-09-06 12:50:00",251994,0,0,33.43,36.48,849.4765,0,864.8185,0,-9.42,3.082,223,20.91,20.46,802.7619,0.943,49.9,57.16,33.27,35.02
"2016-09-06 13:00:00",251995,0,0,34.81,30.09,710.7727,0,864.5775,0,-7.279,3.086,206,20.93,20.44,647.8605,0.9,49.84,57.16,33.26,35.02
"2016-09-06 13:10:00",251996,0,0,29.76,43.5,530.3372,0,864.3798,0,-6.903,3.08,212,21,20.41,486.0091,0.915,49.84,57.16,33.26,35.02
"2016-09-06 13:20:00",251997,0,0,32.29,38.15,617.1376,0,864.3136,0,-7.321,3.078,219,21.07,20.42,557.6807,0.901,49.84,57.16,33.26,35.02
"2016-09-06 13:30:00",251998,0,0,34.92,33.7,845.106,0,864.3301,0,-10.03,3.091,196,21.12,20.42,756.6053,0.894,49.79,57.16,33.24,35.02
"2016-09-06 13:40:00",251999,0,0,29.8,43.68,441.9843,0,864.1537,0,-8.51,3.091,196,21.19,20.38,131.842,0.394,49.79,57.16,33.24,35.02
"2016-09-06 13:50:00",252000,0,0,30.27,42.11,385.6712,0,864.0701,0,-4.231,3.082,208,21.28,20.37,36.76237,0.062,49.84,57.16,33.26,35.02
"2016-09-06 14:00:00",252001,0,0,24.52,61.33,172.6496,0,864.088,0,-3.831,3.082,234,21.35,20.37,12.85792,0.063,49.79,57.16,33.24,35.02
"2016-09-06 14:10:00",252002,0.052,9.85,25.18,56.12,356.5085,0,864.1049,0,-3.357,3.084,197,21.44,20.41,37.10722,0.116,49.73,57.16,33.23,35.02
"2016-09-06 14:20:00",252003,0.28,89.4,22.74,65.7,86.98511,0,864.109,0,-2.932,3.084,202,21.51,20.44,18.56119,0.221,49.79,57.16,33.24,35.02
"2016-09-06 14:30:00",252004,0.4,145.2,22.49,68.02,55.95549,0,864.1144,0,170.3,1.419,174,21.55,20.44,16.90516,0.302,49.73,57.16,33.23,35.02
"2016-09-06 14:40:00",252005,0.324,162.4,22.34,67.74,61.56401,0,864.2246,0,-3.215,3.089,194,21.62,20.45,13.30509,0.217,49.73,57.16,33.23,35.02
"2016-09-06 14:50:00",252006,0.367,139.2,22.15,67.98,85.81388,0,864.3838,0,-3.295,3.09,190,21.7,20.44,11.94843,0.136,49.73,57.16,33.23,35.02
"2016-09-06 15:00:00",252007,0.226,151.8,22.09,70.6,150.3492,0,864.62,0,-3.111,3.088,204,21.74,20.46,23.21854,0.154,49.73,57.1,33.23,35.01
"2016-09-06 15:10:00",252008,0.495,114.7,22.08,69.85,150.5378,0,864.6285,0,-3.687,3.094,214,21.82,20.46,21.79367,0.141,49.73,57.1,33.23,35.01
"2016-09-06 15:20:00",252009,0.697,145.2,22.08,68.4,159.9784,0,864.6229,0,-3.943,3.096,203,21.87,20.47,24.85941,0.155,49.68,57.1,33.22,35.01
"2016-09-06 15:30:00",252010,0.834,134,22.22,65.1,152.7624,0,864.6235,0,-1.967,3.077,226,21.89,20.5,21.08503,0.139,49.68,57.1,33.22,35.01
"2016-09-06 15:40:00",252011,0.542,128.7,22.21,67.23,96.86585,0,864.6299,0,-2.189,3.078,262,21.86,20.52,11.31179,0.12,49.68,57.1,33.22,35.01
"2016-09-06 15:50:00",252012,0.316,157.6,22.09,69.42,60.21593,0,864.8074,0,-3.498,3.094,229,22,20.54,6.90455,0.114,49.62,57.1,33.2,35.01
"2016-09-06 16:00:00",252013,0.491,135.1,21.87,71.4,95.47846,0,864.7969,0,-4.391,3.101,192,22.03,20.55,12.84656,0.132,49.68,57.1,33.22,35.01
"2016-09-06 16:10:00",252014,0.458,148.2,22.18,71.08,145.3106,0,864.6412,0,-4.736,3.105,185,22.08,20.58,21.78988,0.15,49.62,57.1,33.2,35.01
"2016-09-06 16:20:00",252015,0.437,135,22.09,70.19,149.2448,0,864.639,0,-5.176,3.109,184,22.13,20.57,22.06273,0.147,49.62,57.1,33.2,35.01
"2016-09-06 16:30:00",252016,0.334,104,21.98,71.91,90.96255,0,864.6937,0,-5.143,3.108,185,22.11,20.55,11.70211,0.128,49.62,57.16,33.2,35.02
"2016-09-06 16:40:00",252017,0.166,116.1,21.78,73.74,87.1777,0,864.8665,0,-5.016,3.11,188,22.11,20.54,11.08442,0.126,49.62,57.1,33.2,35.01
"2016-09-06 16:50:00",252018,0.365,132.5,21.37,73.29,66.27643,0,864.8791,0,-4.595,3.108,206,22.14,20.54,8.056571,0.121,49.62,57.1,33.2,35.01
"2016-09-06 17:00:00",252019,0.323,127.4,20.95,75.92,70.63905,0,864.8791,0,-3.853,3.102,257,22.17,20.55,9.337437,0.132,49.57,57.16,33.19,35.02
"2016-09-06 17:10:00",252020,0.428,107.2,20.89,73.64,69.29096,0,864.8791,0,-4.324,3.107,221,22.2,20.54,10.03471,0.145,49.62,57.16,33.2,35.02
"2016-09-06 17:20:00",252021,0.335,56.13,20.88,73.79,57.07563,0,864.8791,0,-4.036,3.104,232,22.22,20.54,8.200574,0.143,49.57,57.1,33.19,35.01
"2016-09-06 17:30:00",252022,0.482,29.27,20.65,75.8,46.62107,0,864.8728,0,-4.029,3.106,232,22.23,20.56,6.597597,0.142,49.62,57.1,33.2,35.01
"2016-09-06 17:40:00",252023,0.214,29.46,20.27,79.75,37.02723,0,864.6874,0,-4.461,3.112,225,22.24,20.63,5.104516,0.137,49.57,57.04,33.19,34.99
"2016-09-06 17:50:00",252024,0.056,165.9,20.15,82.4,25.33856,0,864.5211,0,-4.803,3.116,212,22.25,20.67,3.353747,0.132,49.57,57.1,33.19,35.01
"2016-09-06 18:00:00",252025,0.053,185.8,20,84.3,13.83854,0,864.559,0,-5.4,3.122,203,22.26,20.67,1.773507,0.125,49.57,57.04,33.19,34.99
"2016-09-06 18:10:00",252026,0.074,56.29,19.68,86,3.234626,0,864.6263,0,-4.46,3.115,206,22.22,20.67,0.125055,0.023,49.57,57.04,33.19,34.99
"2016-09-06 18:20:00",252027,0,0,19.5,86.5,0.3537259,0,864.6263,0,-4.069,3.111,263,22.2,20.67,0,0,49.51,57.04,33.18,34.99
"2016-09-06 18:30:00",252028,0.081,155.9,19.39,88,0,0,864.7844,0,-3.568,3.108,292,22.16,20.67,0,0,49.51,57.1,33.18,35.01
"2016-09-06 18:40:00",252029,0.372,143.8,19.22,89.4,0,0,864.8791,0,-5.199,3.124,253,22.15,20.71,0.003789545,0,49.51,57.04,33.18,34.99
"2016-09-06 18:50:00",252030,0.307,154.5,19.3,87.6,0,0,864.8286,0,-5.558,3.127,238,22.15,20.8,0.1932668,0,49.57,57.1,33.19,35.01
"2016-09-06 19:00:00",252031,0.304,133.4,19.41,86.5,0,0,865.0497,0,-6.871,3.139,212,22.15,20.8,0.2273727,0,49.57,57.04,33.19,34.99
"2016-09-06 19:10:00",252032,0.668,152.6,19.22,88.1,0,0,864.9802,0,-4.22,3.115,222,22.16,20.78,0.1061072,0,49.51,57.04,33.18,34.99
"2016-09-06 19:20:00",252033,0.682,153.9,18.88,93.6,0,0,864.9002,0,0.408,3.073,345,22.18,20.76,0.2273727,0,49.57,57.04,33.19,34.99
"2016-09-06 19:30:00",252034,0.738,144.2,18.47,100,0,0,864.6327,0,-5.259,3.129,181,22.11,20.76,0.4130603,0,49.51,57.1,33.18,35.01
"2016-09-06 19:40:00",252035,1.018,74.5,18.38,96.9,0,0,864.6263,0,-4.663,3.123,194,22.06,20.76,0.9057011,0,49.57,57.04,33.19,34.99
"2016-09-06 19:50:00",252036,0.922,57.06,18.39,99.2,0,0,864.6263,0,-5.18,3.128,183,22.07,20.77,0.9625443,0,49.51,57.04,33.18,34.99
"2016-09-06 20:00:00",252037,0.965,46.46,18.57,92.2,0,0,864.6263,0,-5.173,3.127,201,22.1,20.8,1.508239,0,49.57,57.04,33.19,34.99
"2016-09-06 20:10:00",252038,0.545,131.4,18.29,98.2,0,0,864.6263,0,-4.89,3.128,190,22.08,20.91,0.6176957,0,49.51,57.04,33.18,34.99
"2016-09-06 20:20:00",252039,0.275,193.9,17.84,100,0,0,864.4726,0,-4.478,3.124,214,21.99,20.93,0.6139062,0,49.57,57.04,33.19,34.99
"2016-09-06 20:30:00",252040,0.077,158.8,17.76,100,0,0,864.3779,0,-4.253,3.123,214,21.98,20.93,0.5002199,0,49.57,57.04,33.19,34.99
"2016-09-06 20:40:00",252041,0.21,166.3,17.49,100,0,0,864.3673,0,-5.22,3.134,180,22.01,20.92,0.382744,0,49.51,57.04,33.18,34.99
"2016-09-06 20:50:00",252042,0.29,176.4,17.37,100,0,0,864.3737,0,-4.553,3.128,197,22.04,20.9,0.4547453,0,49.51,57.04,33.18,34.99
"2016-09-06 21:00:00",252043,0.034,191.8,17.36,100,0,0,864.3737,0,-3.799,3.12,212,22,20.88,0.6404331,0,49.51,57.04,33.18,34.99
"2016-09-06 21:10:00",252044,0.081,189,17.41,99,0,0,864.1882,0,-4.109,3.123,206,21.92,20.86,0.9701234,0,49.51,57.04,33.18,34.99
"2016-09-06 21:20:00",252045,0.017,188.3,17.4,100,0,0,864.2767,0,-3.697,3.119,210,21.93,20.85,0.6934866,0,49.46,57.04,33.16,34.99
"2016-09-06 21:30:00",252046,0.149,234.8,17.61,99.1,0,0,864.184,0,-2.468,3.105,267,21.97,20.86,1.205075,0,49.51,56.98,33.18,34.98
"2016-09-06 21:40:00",252047,0.119,171,17.55,99.7,0,0,864.2894,0,-2.745,3.11,244,21.92,20.94,0.7351716,0,49.51,56.98,33.18,34.98
"2016-09-06 21:50:00",252048,0.019,187.8,17.48,100,0,0,864.2472,0,-1.396,3.096,303,21.81,21,0.7616985,0,49.51,56.98,33.18,34.98
"2016-09-06 22:00:00",252049,0,0,17.73,100,0,0,864.3441,0,-3.349,3.114,225,21.82,21.01,1.038335,0,49.51,56.98,33.18,34.98
"2016-09-06 22:10:00",252050,0.074,142.7,17.75,100,0,0,864.3737,0,-1.166,3.094,329,21.87,21.02,0.9246489,0,49.51,56.98,33.18,34.98
"2016-09-06 22:20:00",252051,0.065,224.7,17.44,100,0,0,864.3737,0,-1.19,3.094,313,21.82,21.01,0.507799,0,49.51,56.98,33.18,34.98
"2016-09-06 22:30:00",252052,0,0,17.79,100,0,0,864.3737,0,-0.769,3.089,320,21.74,21.01,1.110337,0,49.51,56.98,33.18,34.98
"2016-09-06 22:40:00",252053,0,0,17.69,100,0,0,864.2472,0,-1.031,3.092,297,21.71,21.01,0.6366435,0,49.51,56.98,33.18,34.98
"2016-09-06 22:50:00",252054,0.009,141.3,17.62,100,0,0,863.9313,0,-0.436,3.086,316,21.76,21.01,0.6783285,0,49.51,56.98,33.18,34.98
"2016-09-06 23:00:00",252055,0.134,178,17.79,100,0,0,863.8682,0,-0.332,3.085,312,21.76,21.02,0.9511757,0,49.46,56.93,33.16,34.97
"2016-09-06 23:10:00",252056,0.057,272.4,17.75,100,0,0,863.8682,0,-0.349,3.084,315,21.68,21.01,0.8791743,0,49.46,56.98,33.16,34.98
"2016-09-06 23:20:00",252057,0.232,342,18.14,96.5,0,0,863.8682,0,-0.689,3.085,285,21.64,21.01,1.470343,0,49.46,56.98,33.16,34.98
"2016-09-06 23:30:00",252058,0.036,279.9,18.11,97.8,0,0,863.8323,0,-0.658,3.087,289,21.64,21,0.8374893,0,49.51,56.93,33.18,34.97
"2016-09-06 23:40:00",252059,0.004,160.6,17.92,100,0,0,863.6385,0,-0.888,3.089,278,21.71,20.99,0.6404331,0,49.51,56.93,33.18,34.97
"2016-09-06 23:50:00",252060,0.044,175.4,17.75,100,0,0,863.4005,0,-0.666,3.088,273,21.71,20.99,0.2880054,0,49.51,56.93,33.18,34.97
